Location: State Line Observation Field
(36.5320°N, 77.5360°W)
Time: 10:20:29
(UTC-04:00)

Envisat - Pass Details

Date: 09 March 2021
Orbit: 764 x 766 km, 98.1° (Epoch: 13 April)

Event Time Altitude Azimuth Distance (km) Brightness Sun altitude
Rises 04:39:25 0° 31° (NNE) 3,236 6.9 -22.8°
Reaches altitude 10° 04:42:29 10° 51° (NE) 2,304 6.3 -22.2°
Maximum altitude 04:45:53 18° 93° (E) 1,811 5.8 -21.5°
Drops below altitude 10° 04:49:16 10° 135° (SE) 2,293 5.9 -20.9°
Sets 04:52:17 0° 154° (SSE) 3,214 6.4 -20.3°
